Regional Weather Roundup
Issued by NWS

Home | Current Version | Previous Version | Text Only | Print | Product List | Glossary On
Versions: 1 2 3 4 5 6 7 8 9 10 11 12 13 14 15 16 17 18 19 20 21 22 23 24 25 26 27 28 29 30 31 32 33 34 35 36 37 38 39 40 41 42 43 44 45 46 47 48 49 50
000
ASUS45 KPSR 231810
RWRAZ

ARIZONA HOURLY REGIONAL WEATHER ROUNDUP
NATIONAL WEATHER SERVICE PHOENIX AZ
1100 AM MST MON JAN 23 2017

NOTE: FAIR INDICATES FEW OR NO CLOUDS BELOW 12,000 FEET WITH NO
SIGNIFICANT WEATHER AND/OR OBSTRUCTIONS TO VISIBILITY.

AZZ001>003-036-231900-
NORTHWEST ARIZONA

CITY           SKY/WX    TMP DP  RH WIND       PRES   REMARKS
BULLHEAD CITY  PTSUNNY   59  43  55 SW13      29.83F
KINGMAN        CLOUDY    47  35  63 SW31G40   29.81R
6HR MIN TEMP:  45; 6HR MAX TEMP:  49; 6HR PCP:  0.05;

$$

AZZ004>008-015-016-018-231900-
NORTH CENTRAL ARIZONA

CITY           SKY/WX    TMP DP  RH WIND       PRES   REMARKS
GRAND CANYON   CLOUDY    32  31  96 SW25G36   29.76S FOG     WCI  19
6HR MIN TEMP:  31; 6HR MAX TEMP:  32; 6HR PCP:  0.02;

WILLIAMS       LGT SNOW  34  32  93 SW23G35   29.79S WCI  22
PRESCOTT       LGT RAIN  40  38  93 SW17G30   29.86F FOG     WCI  31
6HR MIN TEMP:  37; 6HR MAX TEMP:  40; 6HR PCP:  0.08;

FLAGSTAFF      SNOW      31  30  96 SW24G46   29.79S VSB 1/4 WCI  17
6HR MIN TEMP:  29; 6HR MAX TEMP:  31; 6HR PCP:  0.19;

PAYSON         DRIZZLE   37  36  93 S13G23    29.94F WCI  29
PAGE           CLOUDY    49  29  46 S18G39    29.65F
6HR MIN TEMP:  41; 6HR MAX TEMP:  49;

$$

AZZ009>014-017-231900-
NORTHEAST ARIZONA

CITY           SKY/WX    TMP DP  RH WIND       PRES   REMARKS
WINSLOW        MOSUNNY   49  34  56 S28G39    29.82F
6HR MIN TEMP:  39; 6HR MAX TEMP:  49;

SAINT JOHNS    SUNNY     52  32  46 SW30G38   29.84F
6HR MIN TEMP:  35; 6HR MAX TEMP:  53;

SHOW LOW       LGT RAIN  37  25  60 S31G46    29.89F WCI  25
$$

AZZ023-231900-
GREATER PHOENIX AREA

CITY           SKY/WX    TMP DP  RH WIND       PRES   REMARKS
PHOENIX        CLOUDY    57  38  48 SE6       29.90F
6HR MIN TEMP:  52; 6HR MAX TEMP:  57; 6HR PCP: TRACE;

BUCKEYE        PTSUNNY   57  45  62 W5        29.92S
GLENDALE       CLOUDY    57  43  58 CALM      29.93R
LUKE AFB       CLOUDY    56  42  58 CALM      29.90S
6HR MIN TEMP:  50; 6HR MAX TEMP:  56; 6HR PCP: TRACE;

DEER VALLEY    CLOUDY    54  44  69 VRB6      29.91S
6HR MIN TEMP:  52; 6HR MAX TEMP:  56;

SCOTTSDALE     CLOUDY    53  44  71 E5        29.92F
6HR MIN TEMP:  52; 6HR MAX TEMP:  57; 6HR PCP: TRACE;

MESA-FALCON    PTSUNNY  N/A N/A N/A SE12      29.90
MESA-GATEWAY   CLOUDY    59  39  47 SW16      29.93S
CHANDLER       CLOUDY    61  37  41 SE8       29.92S
$$

AZZ027-028-231900-
SOUTHWEST MARICOPA COUNTY AND PINAL COUNTY

CITY           SKY/WX    TMP DP  RH WIND       PRES   REMARKS
CASA GRANDE    CLOUDY    61  45  55 SW24G30   29.92F
6HR MIN TEMP:  46; 6HR MAX TEMP:  61;

GILA BEND      CLOUDY    62  48  60 S24       29.89S
6HR MIN TEMP:  49; 6HR MAX TEMP:  63;

$$

AZZ503-504-507>509-231900-
SOUTHEAST ARIZONA

CITY           SKY/WX    TMP DP  RH WIND       PRES   REMARKS
TUCSON         SUNNY     65  38  36 S20G26    29.97F
6HR MIN TEMP:  48; 6HR MAX TEMP:  65;

DAVIS-MONTHAN  PTSUNNY   64  38  38 S20G26    29.96F
6HR MIN TEMP:  44; 6HR MAX TEMP:  64;

RYAN FIELD     SUNNY     64  39  39 SW21G28   29.96F
NOGALES        MOSUNNY   62  35  36 S15       30.02F
6HR MIN TEMP:  39; 6HR MAX TEMP:  62;

SIERRA VISTA   MOSUNNY   58  32  37 SW24G30   30.02F
6HR MIN TEMP:  39; 6HR MAX TEMP:  59;

DOUGLAS        SUNNY     59  29  31 S10       30.04F
6HR MIN TEMP:  37; 6HR MAX TEMP:  59;

SAFFORD        SUNNY     57  32  38 E10       29.95F
6HR MIN TEMP:  35; 6HR MAX TEMP:  57;

$$

AZZ020-021-025-026-031-231900-
SOUTHWEST ARIZONA

CITY           SKY/WX    TMP DP  RH WIND       PRES   REMARKS
YUMA           MOSUNNY   63  50  62 NW5       29.92S
6HR MIN TEMP:  55; 6HR MAX TEMP:  63; 6HR PCP: TRACE;

$$

CAZ031-033-041-043-047-048-061-231900-
SOUTHERN CALIFORNIA

CITY           SKY/WX    TMP DP  RH WIND       PRES   REMARKS
DOWNTOWN L.A.  CLOUDY    56  45  66 W8G16     29.91R
6HR MIN TEMP:  51; 6HR MAX TEMP:  56; 6HR PCP:  0.17;

L.A. AIRPORT   PTSUNNY   55  46  71 W20       29.92R
6HR MIN TEMP:  50; 6HR MAX TEMP:  56; 6HR PCP:  0.02;

SAN DIEGO      CLOUDY    57  47  69 SW9       29.99S
6HR MIN TEMP:  54; 6HR MAX TEMP:  58; 6HR PCP:  0.09;

BURBANK        PTSUNNY   49  42  77 SE8       29.90R
6HR MIN TEMP:  46; 6HR MAX TEMP:  50; 6HR PCP:  0.02;

ONTARIO        PTSUNNY   47  44  90 W5        29.92R
6HR MIN TEMP:  46; 6HR MAX TEMP:  49; 6HR PCP:  0.07;

RIVERSIDE      CLOUDY    46  43  87 W7          N/A
PALM SPRINGS   RAIN      50  44  80 CALM      29.92R
6HR MIN TEMP:  50; 6HR MAX TEMP:  53; 6HR PCP:  0.06;

EL CENTRO NAS  MOSUNNY   62  42  47 SW20      29.93S
6HR MIN TEMP:  54; 6HR MAX TEMP:  62;

IMPERIAL       SUNNY     61  43  51 SW17G25   29.90R
6HR MIN TEMP:  55; 6HR MAX TEMP:  61;

BLYTHE         SUNNY     61  43  51 SW17G28   29.89R
6HR MIN TEMP:  53; 6HR MAX TEMP:  61;

NEEDLES        PTSUNNY   61  40  45 SW17G24   29.85R
6HR MIN TEMP:  55; 6HR MAX TEMP:  61;

$$

NVZ020-UTZ003-231900-
SOUTHERN NEVADA-UTAH

CITY           SKY/WX    TMP DP  RH WIND       PRES   REMARKS
LAS VEGAS      PTSUNNY   49  30  48 SW14G26   29.77R
6HR MIN TEMP:  48; 6HR MAX TEMP:  50; 6HR PCP:  0.01;

SALT LAKE CITY CLOUDY    38  31  76 S25G37    29.47S WCI  27
6HR MIN TEMP:  37; 6HR MAX TEMP:  41; 6HR PCP: TRACE;

$$

NMZ009-TXZ055-231900-
NEW MEXICO-WEST TEXAS

CITY           SKY/WX    TMP DP  RH WIND       PRES   REMARKS
ALBUQUERQUE    MOSUNNY   47  29  49 S16       29.94F
6HR MIN TEMP:  32; 6HR MAX TEMP:  47;

EL PASO        MOSUNNY   53  29  39 S10       30.04F
6HR MIN TEMP:  39; 6HR MAX TEMP:  53;

$$


........................KEY........................
SKY/WX - SKY CONDITION/WEATHER
TMP    - TEMPERATURE IN FAHRENHEIT
DP     - DEW POINT IN FAHRENHEIT
RH     - RELATIVE HUMIDITY IN PERCENT
WIND   - DIRECTION AND SPEED IN MILES PER HOUR (MPH)
VRB    - VARIABLE WIND DIRECTION
PRES   - MEAN SEA LEVEL PRESSURE IN INCHES OF MERCURY
         F - FALLING PRESSURE   R - RISING PRESSURE
         S - STEADY PRESSURE
VSB    - VISIBILITY IN MILES
HX     - HEAT INDEX IN FAHRENHEIT
WCI    - WIND CHILL INDEX IN FAHRENHEIT
TC     - TEMPERATURE IN CELSIUS WHICH IS ALSO KNOWN AS
         TEMPERATURE IN CENTIGRADE
AFB    - AIR FORCE BASE
         LUKE AFB IS LUKE AIR FORCE BASE
         DAVIS-MONTHAN IS DAVIS-MONTHAN AIR FORCE BASE
NAS    - NAVAL AIR STATION
         EL CENTRO NAS IS EL CENTRO NAVAL AIR STATION
N/A    - NOT AVAILABLE




USA.gov is the U.S. government's official web portal to all federal, state and local government web resources and services.